| time (UTC) | temp F | wind direction | speed knots | gust knots | rain 1hr in | rain 24hr in | rain mn in | humidity % | barometer mb |
| 20260503195520 | 72 | 0.0 | 5.2 | 0.00 | 0.00 | 0.00 | 34 | 1003.3 | |
| 20260503194544 | 71 | 0.0 | 1.7 | 0.00 | 0.00 | 0.00 | 38 | 1003.5 | |
| 20260503193518 | 71 | 0.0 | 4.3 | 0.00 | 0.00 | 0.00 | 37 | 1003.6 | |
| 20260503192538 | 70 | 248 | 0.9 | 3.5 | 0.00 | 0.00 | 0.00 | 36 | 1003.7 |
| 20260503191538 | 71 | 180 | 1.7 | 7.0 | 0.00 | 0.00 | 0.00 | 35 | 1003.9 |
| 20260503190529 | 71 | 0.0 | 4.3 | 0.00 | 0.00 | 0.00 | 37 | 1003.9 | |
| 20260503185518 | 71 | 0.0 | 4.3 | 0.00 | 0.00 | 0.00 | 44 | 1004.0 | |
| 20260503184803 | 71 | 0.0 | 2.6 | 0.00 | 0.00 | 0.00 | 36 | 1003.9 | |
| 20260503183550 | 70 | 0.0 | 5.2 | 0.00 | 0.00 | 0.00 | 36 | 1003.8 | |
| 20260503182518 | 70 | 0.0 | 5.2 | 0.00 | 0.00 | 0.00 | 38 | 1004.2 | |
| 20260503181540 | 69 | 0.0 | 2.6 | 0.00 | 0.00 | 0.00 | 39 | 1004.2 | |
| 20260503180518 | 69 | 225 | 0.9 | 9.6 | 0.00 | 0.00 | 0.00 | 41 | 1004.2 |
| 20260503175529 | 69 | 0.0 | 0.9 | 0.00 | 0.00 | 0.00 | 40 | 1004.4 | |
| 20260503174557 | 68 | 225 | 0.9 | 5.2 | 0.00 | 0.00 | 0.00 | 38 | 1004.5 |
| 20260503173520 | 69 | 0.0 | 1.7 | 0.00 | 0.00 | 0.00 | 39 | 1004.6 | |
| 20260503172537 | 68 | 0.0 | 3.5 | 0.00 | 0.00 | 0.00 | 42 | 1004.9 | |
| 20260503171520 | 67 | 158 | 0.9 | 8.7 | 0.00 | 0.00 | 0.00 | 42 | 1005.1 |
| 20260503170537 | 67 | 203 | 0.9 | 4.3 | 0.00 | 0.00 | 0.00 | 40 | 1005.3 |
| 20260503150600 | 61 | 0.0 | 3.5 | 0.00 | 0.00 | 0.00 | 51 | 1006.0 | |
| 20260503130528 | 54 | 0.0 | 0.9 | 0.00 | 0.00 | 0.00 | 58 | 1007.6 | |
| 20260503110520 | 48 | 0.0 | 0.9 | 0.00 | 0.00 | 0.00 | 60 | 1007.4 | |
| 20260503081545 | 49 | 0.0 | 2.6 | 0.00 | 0.00 | 0.00 | 56 | 1009.7 | |
| 20260503080539 | 50 | 0.0 | 1.7 | 0.00 | 0.00 | 0.00 | 56 | 1009.8 | |
| 20260503072519 | 50 | 0.0 | 0.0 | 0.00 | 0.00 | 0.00 | 54 | 1009.9 | |
| 20260503071520 | 50 | 0.0 | 2.6 | 0.00 | 0.00 | 0.00 | 55 | 1009.9 | |
| 20260503070548 | 50 | 225 | 0.9 | 2.6 | 0.00 | 0.00 | 0.00 | 55 | 1010.0 |
| 20260503054519 | 47 | 0.0 | 0.0 | 0.00 | 0.00 | 0.00 | 61 | 1010.5 | |
| 20260503053528 | 47 | 0.0 | 0.0 | 0.00 | 0.00 | 0.00 | 58 | 1010.6 | |
| 20260503052528 | 47 | 0.0 | 0.0 | 0.00 | 0.00 | 0.00 | 60 | 1010.8 | |
| 20260503051527 | 48 | 0.0 | 0.9 | 0.00 | 0.00 | 0.00 | 60 | 1010.8 | |
| 20260503050528 | 48 | 0.0 | 0.0 | 0.00 | 0.00 | 0.00 | 58 | 1010.9 | |
| 20260503045519 | 48 | 0.0 | 0.0 | 0.00 | 0.00 | 0.00 | 59 | 1010.9 | |
| 20260503044547 | 48 | 0.0 | 0.0 | 0.00 | 0.00 | 0.00 | 61 | 1011.0 | |
| 20260503043536 | 48 | 0.0 | 0.0 | 0.00 | 0.00 | 0.00 | 64 | 1011.1 | |
| 20260503042539 | 47 | 0.0 | 0.9 | 0.00 | 0.00 | 0.00 | 62 | 1011.1 | |
| 20260503041528 | 47 | 0.0 | 0.0 | 0.00 | 0.00 | 0.00 | 68 | 1011.3 | |
| 20260503040519 | 47 | 0.0 | 0.0 | 0.00 | 0.00 | 0.00 | 67 | 1011.4 | |
| 20260503035536 | 47 | 0.0 | 0.0 | 0.00 | 0.00 | 0.00 | 66 | 1011.3 | |
| 20260503034519 | 47 | 0.0 | 0.0 | 0.00 | 0.00 | 0.00 | 61 | 1011.4 | |
| 20260503033518 | 47 | 0.0 | 0.9 | 0.00 | 0.00 | 0.00 | 64 | 1011.6 | |
| 20260503032519 | 46 | 0.0 | 0.0 | 0.00 | 0.00 | 0.00 | 69 | 1011.6 | |
| 20260503031519 | 46 | 0.0 | 0.0 | 0.00 | 0.00 | 0.00 | 70 | 1011.8 | |
| 20260503030527 | 46 | 0.0 | 0.0 | 0.00 | 0.00 | 0.00 | 69 | 1012.0 | |
| 20260503025539 | 45 | 0.0 | 0.0 | 0.00 | 0.00 | 0.00 | 69 | 1012.0 | |
| 20260503024536 | 45 | 0.0 | 0.0 | 0.00 | 0.00 | 0.00 | 69 | 1012.1 | |
| 20260503023545 | 46 | 0.0 | 0.0 | 0.00 | 0.00 | 0.00 | 65 | 1012.0 | |
| 20260503022519 | 46 | 0.0 | 0.0 | 0.00 | 0.00 | 0.00 | 61 | 1012.0 | |
| 20260503021528 | 46 | 0.0 | 0.0 | 0.00 | 0.00 | 0.00 | 60 | 1012.0 | |
| 20260503020519 | 46 | 0.0 | 0.0 | 0.00 | 0.00 | 0.00 | 60 | 1012.1 | |
| 20260503015541 | 47 | 0.0 | 0.0 | 0.00 | 0.00 | 0.00 | 56 | 1012.1 | |
| 20260503014539 | 48 | 0.0 | 0.0 | 0.00 | 0.00 | 0.00 | 51 | 1012.2 | |
| 20260503013519 | 48 | 0.0 | 0.0 | 0.00 | 0.00 | 0.00 | 50 | 1012.1 | |
| 20260503012519 | 49 | 0.0 | 0.0 | 0.00 | 0.00 | 0.00 | 50 | 1012.0 | |
| 20260503011539 | 50 | 0.0 | 0.0 | 0.00 | 0.00 | 0.00 | 47 | 1012.0 | |
| 20260503010600 | 51 | 0.0 | 0.0 | 0.00 | 0.00 | 0.00 | 45 | 1012.1 | |
| 20260503005519 | 52 | 0.0 | 0.0 | 0.00 | 0.00 | 0.00 | 43 | 1012.0 | |
| 20260503004527 | 53 | 0.0 | 0.0 | 0.00 | 0.00 | 0.00 | 43 | 1011.9 | |
| 20260503003519 | 54 | 0.0 | 0.0 | 0.00 | 0.00 | 0.00 | 42 | 1012.0 | |
| 20260503002518 | 55 | 0.0 | 0.0 | 0.00 | 0.00 | 0.00 | 39 | 1011.8 | |
| 20260503001519 | 55 | 0.0 | 0.0 | 0.00 | 0.00 | 0.00 | 39 | 1011.8 | |
| 20260503000527 | 56 | 0.0 | 2.6 | 0.00 | 0.00 | 0.00 | 39 | 1011.9 | |
| 20260502235518 | 56 | 0.0 | 1.7 | 0.00 | 0.00 | 0.00 | 38 | 1011.8 | |
| 20260502234527 | 57 | 0.0 | 2.6 | 0.00 | 0.00 | 0.00 | 33 | 1011.9 | |
| 20260502233518 | 58 | 0.0 | 3.5 | 0.00 | 0.00 | 0.00 | 34 | 1011.9 | |
| 20260502232530 | 58 | 0.0 | 0.0 | 0.00 | 0.00 | 0.00 | 33 | 1012.0 | |
| 20260502231518 | 58 | 0.0 | 3.5 | 0.00 | 0.00 | 0.00 | 33 | 1012.0 | |
| 20260502230519 | 58 | 0.0 | 1.7 | 0.00 | 0.00 | 0.00 | 34 | 1012.1 | |
| 20260502225518 | 60 | 0.0 | 2.6 | 0.00 | 0.00 | 0.00 | 32 | 1012.3 | |
| 20260502224559 | 60 | 0.0 | 0.9 | 0.00 | 0.00 | 0.00 | 32 | 1012.4 | |
| 20260502223518 | 60 | 0.0 | 2.6 | 0.00 | 0.00 | 0.00 | 32 | 1012.6 | |
| 20260502222519 | 60 | 0.0 | 1.7 | 0.00 | 0.00 | 0.00 | 31 | 1012.5 | |
| 20260502221544 | 60 | 0.0 | 2.6 | 0.00 | 0.00 | 0.00 | 31 | 1012.6 | |
| 20260502220518 | 60 | 0.0 | 0.9 | 0.00 | 0.00 | 0.00 | 31 | 1012.6 | |
| 20260502215527 | 60 | 0.0 | 1.7 | 0.00 | 0.00 | 0.00 | 33 | 1012.6 | |
| 20260502214547 | 60 | 0.0 | 3.5 | 0.00 | 0.00 | 0.00 | 33 | 1012.9 | |
| 20260502213544 | 61 | 0.0 | 0.0 | 0.00 | 0.00 | 0.00 | 29 | 1013.0 | |
| 20260502212518 | 61 | 0.0 | 1.7 | 0.00 | 0.00 | 0.00 | 31 | 1013.1 | |
| 20260502211518 | 62 | 0.0 | 3.5 | 0.00 | 0.00 | 0.00 | 31 | 1013.2 | |
| 20260502210518 | 62 | 248 | 0.9 | 5.2 | 0.00 | 0.00 | 0.00 | 30 | 1013.3 |
| 20260502205538 | 61 | 0.0 | 0.9 | 0.00 | 0.00 | 0.00 | 31 | 1013.4 | |
| 20260502204519 | 62 | 225 | 0.9 | 7.0 | 0.00 | 0.00 | 0.00 | 34 | 1013.6 |
| 20260502203539 | 61 | 225 | 0.9 | 6.1 | 0.00 | 0.00 | 0.00 | 30 | 1013.8 |
| 20260502202518 | 62 | 225 | 0.9 | 5.2 | 0.00 | 0.00 | 0.00 | 29 | 1014.0 |
| 20260502201518 | 61 | 0.0 | 1.7 | 0.00 | 0.00 | 0.00 | 30 | 1013.9 | |
| 20260502200518 | 60 | 225 | 0.9 | 3.5 | 0.00 | 0.00 | 0.00 | 28 | 1014.2 |